Wind_Speed
30 29 27 28 30 29 29 29 28 27 25 22 19 17 16 14 14 14 18 25 24 22 17 15 15 19 26 24 23 22 20 31 31 34 34 32 31 32 29 29 30 31 30
32 30 29 29 31 34 31 33 31 29 28 26 22 21 18 17 15 17 18 19 25 26 23 21 18 20 19 25 21 22 21 26 34 33 36 37 34 32 32 33 30 34 31
38 32 32 31 33 34 36 36 33 32 31 30 29 27 25 22 21 19 18 20 21 24 24 23 21 19 20 22 28 21 24 26 31 35 34 36 37 38 39 36 34 32 33
41 40 36 39 39 38 40 38 36 32 30 31 32 32 30 28 27 26 25 22 22 24 26 24 24 22 21 23 22 29 27 27 34 34 37 37 38 38 39 40 42 38 39
47 48 46 45 46 42 42 39 38 37 36 35 33 32 32 32 30 30 29 28 25 24 27 27 26 26 25 24 27 26 30 31 29 37 37 37 39 41 41 42 44 44 45
41 51 52 51 49 47 46 43 42 40 42 38 39 39 39 35 34 33 30 31 28 28 27 29 31 29 28 28 29 31 30 32 34 34 39 35 42 39 42 44 46 48 45
42 40 46 54 52 49 43 44 45 45 42 41 44 46 45 43 41 38 38 35 33 32 30 29 30 32 32 30 31 32 34 34 34 38 39 41 40 40 43 43 45 48 47
40 42 42 44 51 53 54 49 46 46 46 46 46 48 47 46 45 45 44 43 41 38 38 37 32 33 34 34 36 36 35 36 37 36 41 42 41 46 45 43 41 42 42
38 42 44 45 47 50 53 54 52 52 52 52 52 52 53 53 53 52 50 50 50 49 48 46 41 39 36 37 38 40 41 39 39 40 38 43 44 45 49 51 45 44 44
39 40 45 48 51 52 53 55 58 60 59 60 60 60 59 59 56 54 54 52 52 53 53 51 51 48 44 43 43 42 44 45 44 42 43 41 45 49 47 48 49 50 49
39 40 43 46 47 50 53 56 58 59 62 65 66 66 66 66 65 64 65 62 59 56 54 54 55 55 54 51 50 49 48 50 50 49 47 47 46 46 50 51 51 52 53
48 49 49 49 49 51 54 56 58 58 60 62 66 68 70 71 72 71 71 68 67 64 62 59 58 58 57 58 57 56 55 54 53 54 55 52 51 52 49 51 53 54 54
54 58 60 60 62 62 61 61 61 61 63 65 67 67 66 65 65 66 67 66 67 66 65 65 63 62 61 62 62 63 62 62 60 59 59 59 58 56 55 53 50 51 53
52 55 58 62 65 66 69 70 72 73 72 71 71 73 75 76 77 75 73 73 73 71 69 69 69 68 67 66 67 66 66 66 69 67 65 64 64 63 60 59 57 57 55
51 54 56 59 61 64 67 68 71 74 76 78 78 79 81 82 84 84 84 82 81 79 78 77 75 73 73 72 72 67 70 70 72 74 73 69 69 68 67 64 63 61 60
36 45 54 61 64 66 67 69 70 71 72 73 74 77 79 79 81 85 86 87 87 86 88 86 84 83 81 80 78 76 73 72 74 74 78 76 74 73 73 72 70 67 65
38 40 41 42 43 53 62 67 74 77 80 80 80 80 80 79 79 80 78 80 83 85 86 85 87 87 86 85 84 82 75 71 73 75 79 81 79 80 78 78 77 74 71
45 47 49 50 53 55 54 54 61 66 73 77 80 81 83 86 86 86 85 82 81 82 82 83 82 83 85 84 84 81 78 74 68 74 76 80 82 83 82 83 81 79 77
48 50 54 57 61 62 62 65 66 65 68 72 76 78 81 82 82 85 83 83 85 86 85 84 86 84 83 84 85 85 83 80 76 71 75 79 79 79 84 86 86 85 82
55 57 60 63 66 70 72 71 71 72 69 71 72 75 79 80 81 82 80 78 78 81 83 85 86 87 87 83 84 86 88 87 84 79 75 75 76 77 78 81 85 88 88
59 62 65 68 72 75 76 77 77 76 76 75 76 76 76 81 82 80 80 80 79 80 80 79 82 86 87 89 86 84 86 89 91 88 85 81 78 78 74 75 77 79 84
69 70 71 74 77 76 76 78 79 79 79 79 79 80 82 81 82 83 80 79 79 79 80 82 82 81 81 88 88 87 87 87 90 91 92 92 88 84 81 79 76 77 78
75 75 77 78 78 80 83 81 81 83 83 83 83 83 84 85 86 85 85 83 85 86 84 84 84 84 83 82 88 91 90 88 89 91 93 92 93 94 90 86 82 78 81
78 79 81 83 87 88 86 86 86 86 87 87 86 87 89 90 91 94 95 95 93 91 92 92 89 87 86 86 89 87 91 91 90 91 91 92 92 93 92 92 89 86 82
86 85 85 87 88 89 89 89 90 90 90 91 92 91 94 94 96 99 100 100 98 98 95 94 98 93 91 90 89 91 90 91 92 92 91 92 93 93 93 93 91 89 87
88 90 93 96 98 96 95 94 94 93 93 93 96 97 101 99 101 103 104 106 109 101 101 98 100 101 97 96 94 93 92 93 91 93 94 92 92 90 91 89 88 90 90
Wind_Direction
236 236 233 227 229 237 237 233 246 255 253 252 255 252 256 257 250 251 246 244 246 242 240 242 238 237 227 233 237 233 229 217 212 213 216 217 217 218 221 219 220 225 225
233 232 231 228 232 239 240 240 242 250 252 255 255 253 258 255 255 251 255 254 251 251 249 244 241 238 237 228 233 232 229 226 218 218 217 216 219 226 229 228 228 230 232
227 233 230 230 237 244 244 238 239 240 242 249 252 253 254 259 258 257 256 255 258 256 255 251 241 240 237 234 233 232 231 231 226 224 224 223 223 224 228 230 233 228 228
223 228 227 226 234 235 233 233 234 236 240 245 250 252 254 256 258 261 259 255 255 255 256 254 250 241 240 230 237 236 232 230 227 226 229 226 226 227 229 227 230 231 232
221 223 224 226 231 233 231 230 233 235 238 241 243 248 252 253 255 256 255 257 254 253 252 254 254 251 242 243 232 229 236 230 232 231 231 231 228 229 232 233 231 233 236
225 226 226 230 232 236 238 237 235 238 241 242 248 249 249 249 250 251 253 252 253 251 251 251 250 251 249 244 242 235 229 236 231 235 231 231 230 230 233 236 234 237 239
234 234 235 236 237 238 243 244 244 243 245 249 251 254 256 256 255 252 251 250 252 251 251 250 249 250 248 243 242 245 242 234 235 236 236 235 235 233 231 235 239 240 240
241 242 242 240 242 246 250 250 249 251 251 252 254 259 261 261 263 263 259 256 256 254 252 250 248 247 251 247 241 240 244 247 243 236 238 238 238 234 235 236 238 240 245
245 247 246 246 248 250 252 256 257 256 257 256 257 259 261 263 264 264 265 264 265 263 259 255 249 244 246 248 247 245 241 243 247 248 241 237 237 240 238 238 240 240 239
247 249 250 252 251 250 252 253 256 258 259 258 258 260 262 264 262 261 262 262 264 263 264 261 256 251 248 248 248 249 246 244 244 246 249 247 238 239 241 242 239 239 243
253 256 258 258 257 257 256 256 255 256 258 259 259 259 260 261 262 263 264 262 259 258 257 259 257 254 253 251 247 250 249 247 245 244 246 247 249 244 240 240 242 242 242
262 260 258 259 259 259 259 259 260 261 260 260 259 260 261 260 260 261 262 262 262 258 257 255 254 255 257 255 251 251 250 249 248 247 246 246 247 249 248 241 241 242 244
263 262 262 264 264 262 260 260 260 259 259 259 260 260 260 260 260 260 260 261 261 260 259 257 255 253 253 255 258 256 254 251 250 248 246 246 245 246 247 248 249 246 242
263 263 263 262 261 261 261 262 263 262 262 262 261 262 264 264 263 262 261 262 261 259 259 260 257 256 256 256 255 256 254 256 252 248 247 246 246 245 245 246 247 250 248
275 272 269 267 265 265 263 262 262 262 262 263 263 264 264 264 264 263 262 262 262 261 261 259 257 258 258 257 255 254 256 254 253 248 248 246 245 245 244 244 245 246 249
293 288 280 274 271 269 268 267 265 263 261 260 260 261 261 262 263 262 262 262 262 261 261 260 259 259 259 259 259 257 256 255 255 253 250 247 247 247 246 245 245 245 247
312 309 305 304 295 283 275 274 271 268 266 266 264 262 262 261 260 260 260 261 261 259 259 258 258 259 259 259 259 258 255 251 252 256 254 252 248 247 247 247 245 245 246
305 307 308 307 306 303 298 292 287 278 272 269 268 266 265 264 263 263 261 260 259 258 259 257 256 255 255 255 255 255 252 248 247 251 252 253 252 249 246 246 246 247 246
305 303 305 306 306 303 301 296 295 291 280 276 272 271 268 265 264 263 262 262 259 258 257 257 257 254 252 251 250 253 251 249 244 243 248 252 253 252 249 247 246 245 246
302 301 302 302 301 300 299 296 293 291 284 277 276 273 270 270 270 268 265 263 262 259 257 255 254 256 255 251 250 248 249 248 247 243 242 245 251 252 253 251 250 248 246
301 300 301 300 300 297 295 292 290 288 285 278 272 273 274 271 268 266 267 265 264 263 261 259 257 252 252 254 251 248 246 247 245 245 242 241 245 248 249 251 252 251 250
302 298 297 297 296 293 293 290 288 285 282 279 275 270 270 270 268 264 263 263 262 261 262 262 260 257 254 251 250 249 248 245 245 243 244 243 240 241 246 249 249 249 249
304 299 297 295 295 294 294 291 287 284 282 279 275 271 269 268 268 267 266 264 267 263 261 259 258 258 255 254 250 247 247 247 244 242 242 242 244 244 242 242 244 246 245
302 300 297 296 295 294 290 288 287 285 280 277 271 269 267 266 266 264 267 265 264 264 263 259 256 255 254 255 254 251 246 243 245 245 242 242 241 242 242 244 243 244 243
300 299 298 297 294 292 288 285 284 282 280 276 270 266 266 265 265 265 265 262 263 262 261 261 257 253 252 251 252 253 250 247 243 243 244 242 242 241 242 241 242 244 245
298 297 297 298 296 293 290 286 283 280 279 276 271 267 263 263 262 262 262 263 261 259 262 260 257 252 250 249 248 249 251 250 248 244 240 242 241 242 241 241 242 242 243
Height
10820 10823 10824 10826 10827 10829 10831 10833 10834 10835 10837 10838 10839 10840 10841 10841 10841 10841 10842 10842 10844 10845 10846 10847 10848 10849 10850 10851 10854 10856 10859 10862 10864 10867 10869 10872 10875 10877 10879 10881 10883 10885 10887
10815 10815 10819 10822 10824 10825 10827 10829 10830 10832 10832 10833 10834 10835 10836 10837 10838 10839 10839 10840 10840 10842 10843 10844 10845 10846 10846 10848 10850 10852 10855 10857 10861 10863 10865 10868 10871 10874 10876 10877 10880 10882 10884
10809 10813 10815 10817 10820 10821 10821 10824 10825 10826 10826 10826 10827 10829 10830 10831 10833 10834 10836 10837 10837 10838 10839 10841 10842 10842 10843 10844 10847 10849 10851 10853 10856 10859 10862 10864 10866 10869 10871 10874 10876 10877 10879
10804 10807 10809 10812 10813 10814 10815 10816 10817 10819 10820 10821 10822 10823 10824 10826 10827 10828 10830 10833 10833 10833 10834 10836 10837 10839 10839 10841 10842 10845 10847 10848 10851 10854 10855 10859 10861 10864 10866 10868 10871 10873 10874
10796 10798 10800 10803 10804 10806 10806 10807 10808 10810 10812 10814 10815 10816 10818 10819 10820 10822 10824 10825 10827 10828 10828 10830 10832 10833 10836 10836 10838 10840 10842 10844 10846 10847 10850 10853 10855 10858 10861 10863 10865 10868 10869
10789 10790 10794 10797 10799 10800 10802 10803 10804 10806 10806 10808 10808 10809 10811 10812 10813 10815 10816 10818 10819 10822 10823 10824 10825 10827 10829 10831 10833 10834 10837 10838 10840 10842 10845 10847 10849 10851 10854 10856 10859 10861 10863
10785 10789 10790 10792 10794 10796 10798 10799 10800 10801 10801 10803 10804 10806 10806 10808 10809 10810 10811 10811 10813 10815 10817 10818 10819 10820 10822 10825 10827 10828 10830 10832 10834 10836 10838 10840 10843 10844 10847 10849 10852 10854 10856
10782 10784 10786 10787 10789 10790 10792 10793 10794 10795 10796 10797 10798 10799 10801 10803 10804 10805 10807 10807 10807 10808 10808 10810 10812 10813 10814 10817 10819 10821 10823 10825 10826 10829 10831 10832 10835 10838 10840 10843 10844 10846 10848
10776 10777 10779 10780 10782 10783 10784 10784 10784 10786 10787 10788 10788 10789 10791 10793 10794 10797 10798 10800 10801 10802 10804 10804 10804 10805 10806 10807 10810 10812 10814 10816 10819 10821 10823 10825 10827 10829 10832 10835 10837 10839 10840
10772 10772 10772 10772 10773 10774 10774 10774 10774 10774 10776 10777 10778 10779 10780 10781 10782 10785 10785 10789 10790 10792 10793 10796 10798 10798 10798 10799 10801 10804 10805 10807 10810 10812 10814 10817 10819 10820 10823 10826 10828 10830 10833
10763 10764 10765 10766 10766 10766 10766 10765 10765 10764 10765 10765 10766 10767 10769 10769 10769 10772 10772 10775 10777 10779 10781 10785 10787 10789 10790 10791 10792 10793 10796 10799 10801 10803 10805 10808 10810 10812 10815 10817 10818 10821 10824
10755 10755 10755 10755 10755 10755 10755 10754 10754 10754 10753 10754 10753 10755 10756 10757 10757 10759 10758 10761 10762 10765 10767 10770 10772 10776 10780 10781 10783 10784 10786 10788 10791 10793 10794 10797 10800 10803 10805 10807 10809 10812 10814
10745 10744 10744 10744 10745 10745 10743 10744 10743 10742 10741 10739 10741 10741 10742 10742 10743 10745 10745 10747 10749 10750 10753 10754 10759 10761 10765 10769 10771 10773 10775 10776 10778 10780 10782 10785 10788 10791 10794 10798 10799 10801 10804
10736 10735 10733 10732 10732 10730 10729 10731 10730 10727 10726 10727 10727 10726 10726 10727 10729 10730 10732 10732 10734 10736 10738 10739 10743 10746 10750 10755 10757 10758 10760 10763 10765 10767 10768 10772 10775 10779 10782 10786 10789 10790 10792
10729 10727 10725 10723 10721 10719 10717 10716 10714 10713 10712 10712 10711 10709 10711 10711 10711 10712 10714 10716 10716 10720 10721 10724 10726 10729 10733 10736 10740 10745 10746 10746 10749 10752 10754 10758 10761 10764 10768 10772 10776 10778 10781
10720 10717 10715 10712 10710 10708 10707 10704 10701 10698 10696 10696 10695 10692 10692 10692 10693 10693 10695 10696 10698 10700 10700 10705 10708 10712 10714 10718 10721 10727 10730 10731 10731 10737 10740 10745 10748 10750 10754 10758 10761 10765 10768
10709 10706 10703 10700 10696 10693 10692 10690 10687 10685 10683 10682 10680 10677 10676 10674 10674 10674 10675 10677 10678 10677 10680 10684 10687 10690 10694 10698 10701 10706 10711 10715 10717 10719 10723 10728 10732 10734 10739 10742 10745 10751 10756
10697 10693 10688 10685 10681 10677 10675 10672 10670 10666 10666 10664 10661 10659 10657 10657 10655 10656 10657 10658 10659 10657 10660 10663 10667 10670 10673 10678 10681 10687 10692 10695 10700 10704 10706 10710 10714 10717 10721 10725 10731 10736 10741
10684 10680 10675 10670 10665 10661 10657 10653 10650 10647 10644 10642 10641 10640 10638 10637 10636 10636 10636 10637 10638 10639 10640 10642 10643 10647 10652 10656 10661 10666 10671 10675 10678 10685 10691 10693 10696 10700 10703 10707 10713 10719 10725
10671 10665 10660 10655 10650 10644 10639 10635 10631 10627 10623 10621 10619 10618 10616 10615 10614 10614 10614 10615 10617 10619 10619 10620 10623 10625 10629 10634 10640 10646 10649 10654 10660 10665 10670 10675 10678 10682 10685 10690 10696 10702 10707
10655 10649 10643 10638 10632 10626 10621 10616 10611 10607 10603 10600 10597 10596 10594 10593 10592 10591 10591 10592 10595 10597 10598 10599 10601 10605 10607 10610 10617 10622 10627 10632 10637 10643 10648 10653 10661 10664 10668 10673 10677 10682 10688
10637 10631 10625 10618 10613 10607 10601 10595 10589 10584 10580 10577 10574 10573 10572 10570 10569 10569 10569 10570 10571 10574 10575 10576 10579 10582 10586 10587 10594 10599 10604 10609 10614 10619 10626 10632 10636 10642 10650 10655 10661 10665 10669
10618 10611 10604 10598 10591 10584 10577 10571 10565 10560 10556 10552 10550 10547 10546 10546 10546 10546 10546 10546 10547 10550 10551 10553 10555 10559 10564 10566 10568 10575 10582 10587 10591 10595 10602 10608 10615 10623 10628 10632 10639 10647 10652
10597 10589 10582 10575 10568 10560 10554 10546 10540 10534 10529 10525 10523 10520 10518 10517 10519 10518 10518 10519 10522 10523 10525 10526 10528 10533 10539 10544 10544 10549 10557 10563 10568 10574 10579 10586 10593 10597 10606 10613 10621 10626 10633
10572 10564 10556 10548 10540 10532 10524 10518 10512 10506 10502 10498 10491 10491 10489 10487 10487 10488 10488 10489 10491 10493 10496 10497 10500 10505 10510 10517 10521 10522 10531 10538 10545 10551 10557 10564 10566 10574 10580 10589 10597 10607 10613
10547 10538 10529 10519 10508 10500 10492 10485 10479 10474 10469 10466 10463 10459 10456 10454 10452 10450 10452 10454 10457 10459 10462 10466 10470 10474 10479 10485 10493 10498 10502 10511 10518 10525 10534 10537 10545 10549 10557 10566 10576 10583 10590